STARLINK-11305, 61247

Orbit data source: Space-Track

STARLINK-11305, 61247 is a payload satellite owned by SpaceX/Seattle (US) in LEO that was launched on Wed, 25 Sep 2024 UTC via an FALCON 9 launch vehicle from the Air Force Western Test Range (AFWTR). Payload-class satellites include a variety of spacecraft equipped with specific instruments for various scientific and technological missions. These include communications satellites like Starlink; space stations such as the ISS; scientific satellites like the Hubble; Earth observation satellites from companies like Planet Labs, Umbra, and HawkEye 360; GPS; miniature CubeSats for education and research; and military/defense satellites.

Loading next visibility...
Identifier
61247, 2024-175E
Orbit
LEO
Last TLE update
1 day ago
Origin
Manufacturer
SpaceX/Seattle
Mission
Operational Commercial Communications
Bus & Motor
STARLINK V2M, Unknown motor
Mass
730 kg wet, ~700 kg dry
Launch date (UTC)
2024-09-25 (7 months ago)
Launch vehicle
FALCON 9
Launch site
Air Force Western Test Range (AFWTR)
Object type
Payload
Rocket body
Debris
Shape & HBR
Box + 2 Pan, 29 m
Radar Cross Section
36.964 m², Large (>1 m²)

Expand to show TLE details & history

TLE from 1 day ago
0 STARLINK-11305
1 61247U 24175E   25128.23230860  .00000128  00000-0  59190-5 0  9991
2 61247  53.1589 121.8620 0001299 105.7361 254.3800 15.69704605 35392
Epoch: 2025-05-08T05:34Z
Definitive object data (Epoch: 2025-05-08T05:34:31.463Z)
Latitude
-0.00002°
Longitude
171.92513°
Altitude
360.893 km
Speed
7.694 km/s
True Right ascension
08h 07m 26s
True Declination
0° 00' 00"
Sunlit
Object was in daylight at TLE epoch
Visualization TLE readout
Latitude
40.69411°
Longitude
-53.05006°
Altitude
362.628 km
Speed
7.697 km/s
Apparent Right ascension
21h 39m 39s
Apparent Declination
5° 31' 12"
Sunlit
Object is in full shadow
Visualization observer readout
Local Sidereal Time
14:42:17
Azimuth
76.474° E
Elevation
-7.318°
Doppler factor
1
Orbital elements
Apogee altitude
360.878 km
Perigee altitude
359.128 km
Semi-major axis
6,738.14 km
Eccentricity
0.0001299
Inclination
53.1589°
RAAN
121.862°
Arg. of periapsis
105.7361°
True anomaly
254.36566°
Mean anomaly
254.38°
Eccentric anomaly
254.37283°
Mean motion
3.92404 °/min
BSTAR
0.000005919
Orbital period
91.74 mins
Loading maneuver chart data...
Loading SW <> Apogee altitude chart data...
Loading historical data...
Loading historical data...
Loading historical data...
Loading historical data...
Loading historical data...
Loading historical data...
Loading historical data...

STARLINK-11305 Visibility forecast

Observer location: undefined°, undefined°

Span
Click to sort rows by Start time (UTC) header in descending order
Start Az.
Max El. time (UTC)
Max El. Az.
Max El.
End time (UTC)
End Az.
4 mins2025-05-09 08:01:26.292Z345.418° N2025-05-09 08:03:26.292Z43.074° NE21.164°2025-05-09 08:05:26.292Z85.865° E
|